TimeEDT,TemperatureF,Dew PointF,Humidity,Sea Level PressureIn,VisibilityMPH,Wind Direction,Wind SpeedMPH,Gust SpeedMPH,PrecipitationIn,Events,Conditions,WindDirDegrees,DateUTC
12:55 AM,64.0,51.4,64,29.68,10.0,NNW,10.4,19.6,N/A,,Clear,340,2012-10-28 04:55:00
1:55 AM,63.3,50.7,63,29.67,10.0,NNW,12.7,-,N/A,,Clear,340,2012-10-28 05:55:00
2:55 AM,62.8,50.2,63,29.66,10.0,North,11.5,-,N/A,,Clear,350,2012-10-28 06:55:00
3:55 AM,63.0,49.5,61,29.65,10.0,North,12.7,21.9,N/A,,Clear,350,2012-10-28 07:55:00
4:55 AM,62.2,49.6,63,29.65,10.0,NNW,9.2,-,N/A,,Clear,340,2012-10-28 08:55:00
5:55 AM,61.7,50.7,67,29.65,10.0,North,13.8,-,N/A,,Clear,360,2012-10-28 09:55:00
6:55 AM,59.7,50.4,71,29.66,10.0,NNW,9.2,-,N/A,,Clear,330,2012-10-28 10:55:00
7:55 AM,58.8,49.6,72,29.67,10.0,NNW,10.4,-,N/A,,Clear,330,2012-10-28 11:55:00
8:55 AM,60.6,49.6,67,29.68,10.0,NNW,11.5,-,N/A,,Overcast,330,2012-10-28 12:55:00
9:55 AM,63.0,49.1,61,29.68,10.0,North,16.1,-,N/A,,Overcast,360,2012-10-28 13:55:00
10:55 AM,66.0,49.1,54,29.68,10.0,North,11.5,-,N/A,,Overcast,360,2012-10-28 14:55:00
11:55 AM,66.9,49.1,53,29.66,10.0,North,13.8,18.4,N/A,,Mostly Cloudy,360,2012-10-28 15:55:00
12:55 PM,69.1,49.5,50,29.65,10.0,North,10.4,-,N/A,,Mostly Cloudy,350,2012-10-28 16:55:00
1:55 PM,71.4,49.3,45,29.63,10.0,NNE,11.5,17.3,N/A,,Mostly Cloudy,20,2012-10-28 17:55:00
2:55 PM,73.0,48.4,42,29.61,10.0,North,10.4,17.3,N/A,,Mostly Cloudy,350,2012-10-28 18:55:00
3:55 PM,74.1,48.2,40,29.60,10.0,North,16.1,21.9,N/A,,Mostly Cloudy,350,2012-10-28 19:55:00
4:55 PM,73.6,48.4,41,29.60,10.0,North,10.4,-,N/A,,Clear,350,2012-10-28 20:55:00
5:55 PM,68.7,48.4,48,29.60,10.0,NNW,9.2,-,N/A,,Clear,340,2012-10-28 21:55:00
6:55 PM,66.4,48.9,53,29.61,10.0,North,3.5,-,N/A,,Overcast,360,2012-10-28 22:55:00
7:55 PM,65.5,49.6,57,29.62,10.0,NNW,8.1,-,N/A,,Overcast,340,2012-10-28 23:55:00
8:55 PM,63.5,46.4,54,29.64,10.0,NW,12.7,-,N/A,,Mostly Cloudy,310,2012-10-29 00:55:00
9:55 PM,59.5,47.1,63,29.66,10.0,NNW,12.7,24.2,N/A,,Scattered Clouds,330,2012-10-29 01:55:00
10:55 PM,57.2,44.2,62,29.68,10.0,NW,15.0,-,N/A,,Overcast,310,2012-10-29 02:55:00
11:55 PM,55.6,41.0,58,29.68,10.0,NW,15.0,-,N/A,,Overcast,310,2012-10-29 03:55:00